Preview of NWS' New Version of Forecast
This preview is not operational and should not be used for support decisions.

Regional Weather Roundup (RWR)

Issued by National Weather Service (NWS)

                            
000
ASUS45 KBOI 250110
RWRID 

IDAHO REGIONAL WEATHER ROUNDUP
NATIONAL WEATHER SERVICE BOISE ID
700 PM MDT MON JUN 24 2019

NOTE: "FAIR" INDICATES FEW OR NO CLOUDS BELOW 12000 FEET
WITH NO SIGNIFICANT WEATHER AND/OR OBSTRUCTIONS TO VISIBILITY

IDZ012-014-250200-
SOUTHWEST IDAHO

  
CITY           SKY/WX    TMP DP  RH WIND       PRES   REMARKS
BOISE          MOSUNNY   77  38  24 N12G21    29.84F                  
CALDWELL       MOSUNNY   78  44  29 N9        29.83F                  
MOUNTAIN HOME  SUNNY     79  37  21 N16       29.83S                  
$$

IDZ016-017-250200-
SOUTHCENTRAL IDAHO

  
CITY           SKY/WX    TMP DP  RH WIND       PRES   REMARKS
BURLEY         MOSUNNY   73  36  25 NW5       29.88F                  
JEROME         MOSUNNY   76  39  26 NW7       29.90S                  
TWIN FALLS     MOSUNNY   76  36  23 VRB7      29.90S                  
$$

IDZ019>023-250200-
SOUTHEAST IDAHO

  
CITY           SKY/WX    TMP DP  RH WIND       PRES   REMARKS
IDAHO FALLS    FAIR      71  33  24 SW18G32   29.89S                  
POCATELLO      MOSUNNY   73  31  21 W16       29.92S                  
REXBURG        MOSUNNY   72  33  24 SW21G29   29.87S                  
$$

IDZ006-010-011-018-031-032-250200-
CENTRAL IDAHO MOUNTAINS

  
CITY           SKY/WX    TMP DP  RH WIND       PRES   REMARKS
MCCALL         PTSUNNY   64  32  30 VRB5      29.94S                  
HAILEY         MOSUNNY   68  36  30 W10G25    29.95F                  
STANLEY          N/A     59  26  28 VRB7      30.02R                  
SALMON         MOSUNNY   72  36  26 NW6       29.84F                  
CHALLIS        MOSUNNY   73  25  16 W15G23    29.89S                  
$$

IDZ002-004-006-007-026-250200-
NORTHERN IDAHO

  
CITY           SKY/WX    TMP DP  RH WIND       PRES   REMARKS
LEWISTON       MOSUNNY   76  36  23 NW7       29.85F                  
LOWELL           N/A     68  49  50 CALM      29.83S                  
COEUR D'ALENE  PTSUNNY   70  41  34 S8        29.89F                  
MULLAN PASS    PTSUNNY   50  33  52 VRB5      29.98S                  
$$